Mayfld Grav Cnty AP, Mayfield, KY

3:29 AM CDT on July 22, 2019 (GMT -0500)
Mayfld Grav Cnty AP, Mayfield

Weather History for KM25 - May, 2019

Change the Weather History Date:

Sunday, May 5, 2019

  Actual Average (KPAH) Record (KPAH)
Temperature  
Mean Temperature 62 °F -  
Max Temperature 71 °F 75 °F 92 °F (1959)
Min Temperature 51 °F 52 °F 39 °F (2011)
Degree Days  
Heating Degree Days 3    
Growing Degree Days 12 (Base 50)    
Moisture  
Dew Point 51 °F    
Average Humidity 71    
Maximum Humidity 94    
Minimum Humidity 38    
Precipitation  
Precipitation 0.00 in - - ()
Sea Level Pressure  
Sea Level Pressure 29.91 in    
Wind  
Wind Speed 5 mph (North)    
Max Wind Speed 10 mph    
Max Gust Speed 9 mph    
Visibility 10 miles    
Events      
Averages and records for this station are not official NWS values.
T = Trace of Precipitation, MM = Missing Value Source: NWS Daily Summary

Daily Weather History Graph

Daily Weather History Graph

Search for Another Location

Airport or City:

Astronomy

May. 05, 2019 Rise Set
Actual Time 5:56 AM CDT 7:46 PM CDT
Civil Twilight 5:28 AM CDT 8:14 PM CDT
Nautical Twilight 4:54 AM CDT 8:48 PM CDT
Astronomical Twilight 4:18 AM CDT 9:24 PM CDT
Moon 6:39 AM CDT (5/5) 8:39 PM CDT (5/5)
Length of Visible Light 14h 46m
Length of Day
13h 49m
New Moon, 1% of the Moon is Illuminated
May 5
New Moon
May 11
First Quarter
May 18
Full
May 26
Last Quarter
Jun 3
New

Hourly Weather History & Observations

Time (CDT) Temp. Dew Point Humidity Pressure Visibility Wind Dir Wind Speed Gust Speed Precip Events Conditions
12:15 AM 57.2 °F 55.4 °F 94% 29.86 in 10.0 mi North 5.8 mph 9.2 mph N/A   Overcast
12:35 AM 57.2 °F 55.4 °F 94% 29.86 in 10.0 mi North 8.1 mph - N/A   Overcast
12:55 AM 57.2 °F 55.4 °F 94% 29.86 in 10.0 mi North 9.2 mph - N/A   Overcast
1:15 AM 57.2 °F 55.4 °F 94% 29.86 in 10.0 mi North 3.5 mph - N/A   Overcast
1:35 AM 57.2 °F 55.4 °F 94% 29.86 in 10.0 mi North 8.1 mph - N/A   Overcast
1:55 AM 57.2 °F 53.6 °F 88% 29.85 in 10.0 mi North 8.1 mph - N/A   Overcast
2:15 AM 57.2 °F 53.6 °F 88% 29.85 in 10.0 mi North 4.6 mph - N/A   Overcast
2:35 AM 57.2 °F 53.6 °F 88% 29.85 in 10.0 mi North 4.6 mph - N/A   Overcast
2:55 AM 57.2 °F 53.6 °F 88% 29.85 in 10.0 mi North 3.5 mph - N/A   Overcast
3:15 AM 55.4 °F 53.6 °F 94% 29.86 in 10.0 mi North 4.6 mph - N/A   Overcast
3:35 AM 55.4 °F 53.6 °F 94% 29.86 in 10.0 mi North 3.5 mph - N/A   Overcast
4:35 AM 55.4 °F 53.6 °F 94% 29.86 in 10.0 mi NNW 5.8 mph - N/A   Overcast
4:55 AM 55.4 °F 53.6 °F 94% 29.86 in 10.0 mi NNW 6.9 mph - N/A   Overcast
5:15 AM 55.4 °F 53.6 °F 94% 29.87 in 10.0 mi NNW 10.4 mph - N/A   Overcast
5:35 AM 55.4 °F 53.6 °F 94% 29.88 in 10.0 mi North 5.8 mph - N/A   Overcast
5:55 AM 55.4 °F 51.8 °F 88% 29.89 in 10.0 mi North 9.2 mph - N/A   Overcast
6:35 AM 55.4 °F 51.8 °F 88% 29.89 in 10.0 mi NNW 3.5 mph - N/A   Overcast
6:55 AM 55.4 °F 51.8 °F 88% 29.89 in 10.0 mi NNW 3.5 mph - N/A   Overcast
7:15 AM 55.4 °F 51.8 °F 88% 29.90 in 10.0 mi NNW 4.6 mph - N/A   Overcast
7:35 AM 55.4 °F 51.8 °F 88% 29.92 in 10.0 mi NW 8.1 mph - N/A   Overcast
7:55 AM 55.4 °F 51.8 °F 88% 29.92 in 10.0 mi North 4.6 mph - N/A   Overcast
8:15 AM 55.4 °F 51.8 °F 88% 29.93 in 10.0 mi North 6.9 mph - N/A   Overcast
8:35 AM 57.2 °F 51.8 °F 82% 29.93 in 10.0 mi North 5.8 mph - N/A   Overcast
8:55 AM 57.2 °F 51.8 °F 82% 29.93 in 10.0 mi NNW 5.8 mph - N/A   Overcast
9:15 AM 57.2 °F 51.8 °F 82% 29.93 in 10.0 mi North 3.5 mph - N/A   Overcast
9:35 AM 59.0 °F 53.6 °F 82% 29.93 in 10.0 mi NW 6.9 mph - N/A   Overcast
9:55 AM 59.0 °F 53.6 °F 82% 29.94 in 10.0 mi WNW 4.6 mph - N/A   Overcast
10:15 AM 62.6 °F 53.6 °F 72% 29.94 in 10.0 mi NW 4.6 mph - N/A   Mostly Cloudy
10:35 AM 60.8 °F 51.8 °F 72% 29.95 in 10.0 mi NNW 4.6 mph - N/A   Overcast
10:55 AM 60.8 °F 51.8 °F 72% 29.94 in 10.0 mi NNW 5.8 mph - N/A   Overcast
11:15 AM 62.6 °F 53.6 °F 72% 29.95 in 10.0 mi North 4.6 mph - N/A   Mostly Cloudy
11:35 AM 64.4 °F 53.6 °F 68% 29.94 in 10.0 mi NW 3.5 mph - N/A   Mostly Cloudy
11:55 AM 64.4 °F 53.6 °F 68% 29.94 in 10.0 mi North 6.9 mph - N/A   Mostly Cloudy
12:15 PM 66.2 °F 51.8 °F 60% 29.94 in 10.0 mi NW 5.8 mph - N/A   Scattered Clouds
12:35 PM 68.0 °F 51.8 °F 56% 29.94 in 10.0 mi NNE 6.9 mph - N/A   Scattered Clouds
12:55 PM 68.0 °F 51.8 °F 56% 29.93 in 10.0 mi North 3.5 mph - N/A   Scattered Clouds
1:15 PM 68.0 °F 50.0 °F 52% 29.93 in 10.0 mi North 6.9 mph - N/A   Scattered Clouds
1:35 PM 69.8 °F 51.8 °F 53% 29.92 in 10.0 mi NNE 8.1 mph - N/A   Clear
1:55 PM 69.8 °F 50.0 °F 49% 29.92 in 10.0 mi North 10.4 mph - N/A   Clear
2:15 PM 69.8 °F 51.8 °F 53% 29.92 in 10.0 mi North 4.6 mph - N/A   Clear
2:35 PM 69.8 °F 50.0 °F 49% 29.92 in 10.0 mi North 6.9 mph - N/A   Clear
2:55 PM 69.8 °F 50.0 °F 49% 29.92 in 10.0 mi Calm Calm - N/A   Clear
3:15 PM 71.6 °F 50.0 °F 46% 29.92 in 10.0 mi NNW 8.1 mph - N/A   Clear
3:35 PM 71.6 °F 50.0 °F 46% 29.92 in 10.0 mi NNE 5.8 mph - N/A   Clear
3:55 PM 71.6 °F 50.0 °F 46% 29.92 in 10.0 mi North 6.9 mph - N/A   Clear
4:15 PM 71.6 °F 46.4 °F 41% 29.92 in 10.0 mi NNE 3.5 mph - N/A   Clear
4:35 PM 71.6 °F 44.6 °F 38% 29.92 in 10.0 mi NE 6.9 mph - N/A   Clear
4:55 PM 71.6 °F 46.4 °F 41% 29.92 in 10.0 mi ENE 3.5 mph - N/A   Clear
5:15 PM 71.6 °F 46.4 °F 41% 29.92 in 10.0 mi NNE 4.6 mph - N/A   Clear
5:35 PM 71.6 °F 44.6 °F 38% 29.91 in 10.0 mi Calm Calm - N/A   Clear
5:55 PM 71.6 °F 44.6 °F 38% 29.92 in 10.0 mi NNW 4.6 mph - N/A   Clear
6:15 PM 71.6 °F 44.6 °F 38% 29.92 in 10.0 mi North 4.6 mph - N/A   Clear
6:35 PM 71.6 °F 44.6 °F 38% 29.92 in 10.0 mi Calm Calm - N/A   Clear
6:55 PM 69.8 °F 44.6 °F 40% 29.92 in 10.0 mi Calm Calm - N/A   Clear
7:15 PM 69.8 °F 44.6 °F 40% 29.91 in 10.0 mi Calm Calm - N/A   Clear
7:35 PM 68.0 °F 46.4 °F 46% 29.92 in 10.0 mi Calm Calm - N/A   Clear
7:55 PM 62.6 °F 50.0 °F 63% 29.92 in 10.0 mi Calm Calm - N/A   Clear
8:35 PM 60.8 °F 50.0 °F 68% 29.93 in 10.0 mi Calm Calm - N/A   Clear
8:55 PM 59.0 °F 50.0 °F 72% 29.93 in 10.0 mi Calm Calm - N/A   Clear
9:15 PM 57.2 °F 51.8 °F 82% 29.94 in 10.0 mi Calm Calm - N/A   Clear
9:35 PM 57.2 °F 50.0 °F 77% 29.94 in 10.0 mi Calm Calm - N/A   Clear
9:55 PM 55.4 °F 50.0 °F 82% 29.95 in 10.0 mi Calm Calm - N/A   Clear
10:15 PM 55.4 °F 50.0 °F 82% 29.95 in 10.0 mi Calm Calm - N/A   Clear
10:35 PM 53.6 °F 50.0 °F 88% 29.96 in 10.0 mi Calm Calm - N/A   Clear
10:55 PM 55.4 °F 50.0 °F 82% 29.96 in 10.0 mi Calm Calm - N/A   Clear
11:15 PM 53.6 °F 50.0 °F 88% 29.96 in 10.0 mi East 3.5 mph - N/A   Clear
11:35 PM 53.6 °F 50.0 °F 88% 29.97 in 10.0 mi ENE 3.5 mph - N/A   Clear
11:55 PM 51.8 °F 50.0 °F 94% 29.97 in 10.0 mi East 5.8 mph - N/A   Clear